TimeMST,TemperatureF,Dew PointF,Humidity,Sea Level PressureIn,VisibilityMPH,Wind Direction,Wind SpeedMPH,Gust SpeedMPH,PrecipitationIn,Events,Conditions,WindDirDegrees,DateUTC
12:15 AM,57.2,21.2,25,30.31,10.0,SW,6.9,-,N/A,,Clear,230,2013-05-14 07:15:00
12:35 AM,62.6,23.0,22,30.30,10.0,SW,5.8,-,N/A,,Clear,230,2013-05-14 07:35:00
12:55 AM,57.2,23.0,27,30.30,10.0,SE,3.5,-,N/A,,Clear,130,2013-05-14 07:55:00
1:15 AM,51.8,23.0,33,30.30,10.0,SE,6.9,-,N/A,,Clear,130,2013-05-14 08:15:00
1:35 AM,53.6,23.0,30,30.30,10.0,SE,4.6,-,N/A,,Clear,130,2013-05-14 08:35:00
1:55 AM,53.6,23.0,30,30.29,10.0,SSE,4.6,-,N/A,,Clear,150,2013-05-14 08:55:00
2:15 AM,48.2,24.8,40,30.30,10.0,SE,8.1,-,N/A,,Clear,140,2013-05-14 09:15:00
2:35 AM,50.0,24.8,37,30.30,10.0,SSE,5.8,-,N/A,,Clear,150,2013-05-14 09:35:00
2:55 AM,50.0,24.8,37,30.30,10.0,SSE,5.8,-,N/A,,Clear,160,2013-05-14 09:55:00
3:15 AM,48.2,24.8,40,30.30,10.0,SE,5.8,-,N/A,,Clear,140,2013-05-14 10:15:00
3:35 AM,48.2,24.8,40,30.29,10.0,SSE,6.9,-,N/A,,Clear,150,2013-05-14 10:35:00
3:55 AM,46.4,24.8,43,30.29,10.0,SSE,8.1,-,N/A,,Clear,150,2013-05-14 10:55:00
4:15 AM,46.4,24.8,43,30.28,10.0,SSE,9.2,-,N/A,,Clear,150,2013-05-14 11:15:00
4:35 AM,46.4,24.8,43,30.28,10.0,SSE,8.1,-,N/A,,Clear,150,2013-05-14 11:35:00
4:55 AM,46.4,24.8,43,30.28,10.0,SSE,6.9,-,N/A,,Clear,150,2013-05-14 11:55:00
5:15 AM,46.4,24.8,43,30.28,10.0,SSE,6.9,-,N/A,,Clear,150,2013-05-14 12:15:00
5:35 AM,46.4,24.8,43,30.28,10.0,SSE,9.2,-,N/A,,Clear,150,2013-05-14 12:35:00
5:55 AM,46.4,24.8,43,30.28,10.0,SSE,8.1,-,N/A,,Clear,150,2013-05-14 12:55:00
6:15 AM,48.2,24.8,40,30.29,10.0,SSE,6.9,-,N/A,,Clear,150,2013-05-14 13:15:00
6:35 AM,50.0,26.6,40,30.30,10.0,SSE,6.9,-,N/A,,Clear,150,2013-05-14 13:35:00
6:55 AM,53.6,28.4,38,30.30,10.0,SE,5.8,-,N/A,,Clear,140,2013-05-14 13:55:00
7:15 AM,55.4,30.2,38,30.30,10.0,SE,4.6,-,N/A,,Clear,140,2013-05-14 14:15:00
7:35 AM,62.6,26.6,26,30.31,10.0,SE,5.8,-,N/A,,Clear,130,2013-05-14 14:35:00
8:15 AM,69.8,24.8,18,30.31,10.0,SSW,8.1,-,N/A,,Clear,200,2013-05-14 15:15:00
8:35 AM,71.6,24.8,17,30.31,10.0,SW,9.2,-,N/A,,Clear,230,2013-05-14 15:35:00
8:55 AM,71.6,24.8,17,30.31,10.0,SW,9.2,-,N/A,,Clear,230,2013-05-14 15:55:00
9:15 AM,73.4,24.8,16,30.30,10.0,SW,11.5,-,N/A,,Clear,220,2013-05-14 16:15:00
9:35 AM,73.4,24.8,16,30.30,10.0,WSW,11.5,16.1,N/A,,Clear,240,2013-05-14 16:35:00
9:55 AM,73.4,23.0,15,30.30,10.0,WSW,10.4,18.4,N/A,,Clear,250,2013-05-14 16:55:00
10:15 AM,73.4,23.0,15,30.30,10.0,WSW,11.5,18.4,N/A,,Clear,250,2013-05-14 17:15:00
10:35 AM,73.4,24.8,16,30.29,10.0,WSW,10.4,17.3,N/A,,Clear,250,2013-05-14 17:35:00
11:15 AM,75.2,23.0,14,30.29,10.0,WNW,10.4,-,N/A,,Clear,290,2013-05-14 18:15:00
11:35 AM,75.2,23.0,14,30.29,10.0,West,10.4,-,N/A,,Clear,270,2013-05-14 18:35:00
11:55 AM,75.2,23.0,14,30.28,10.0,West,9.2,18.4,N/A,,Clear,280,2013-05-14 18:55:00
12:15 PM,77.0,24.8,14,30.27,10.0,West,12.7,17.3,N/A,,Clear,260,2013-05-14 19:15:00
12:35 PM,77.0,24.8,14,30.27,10.0,West,9.2,18.4,N/A,,Clear,270,2013-05-14 19:35:00
12:55 PM,77.0,24.8,14,30.25,10.0,WNW,13.8,-,N/A,,Clear,300,2013-05-14 19:55:00
1:15 PM,77.0,24.8,14,30.25,10.0,WSW,8.1,19.6,N/A,,Clear,240,2013-05-14 20:15:00
1:35 PM,80.6,24.8,13,30.24,10.0,SSW,8.1,-,N/A,,Clear,200,2013-05-14 20:35:00
1:55 PM,78.8,23.0,13,30.23,10.0,SW,15.0,-,N/A,,Clear,230,2013-05-14 20:55:00
2:15 PM,80.6,23.0,12,30.22,10.0,SW,11.5,16.1,N/A,,Clear,230,2013-05-14 21:15:00
2:35 PM,78.8,23.0,13,30.22,10.0,SW,10.4,19.6,N/A,,Partly Cloudy,230,2013-05-14 21:35:00
2:55 PM,75.2,24.8,15,30.22,10.0,West,17.3,23.0,N/A,,Mostly Cloudy,270,2013-05-14 21:55:00
3:15 PM,77.0,26.6,16,30.22,10.0,West,24.2,32.2,N/A,,Scattered Clouds,280,2013-05-14 22:15:00
3:35 PM,71.6,30.2,22,30.23,10.0,SW,19.6,31.1,N/A,,Clear,220,2013-05-14 22:35:00
3:55 PM,71.6,28.4,20,30.23,10.0,WSW,16.1,23.0,N/A,,Partly Cloudy,240,2013-05-14 22:55:00
4:15 PM,73.4,32.0,22,30.22,10.0,SSW,12.7,17.3,N/A,,Partly Cloudy,200,2013-05-14 23:15:00
4:35 PM,73.4,28.4,19,30.22,10.0,WSW,12.7,-,N/A,,Clear,240,2013-05-14 23:35:00
5:15 PM,75.2,28.4,18,30.22,10.0,SW,11.5,23.0,N/A,,Partly Cloudy,230,2013-05-15 00:15:00
5:35 PM,73.4,26.6,18,30.22,10.0,SW,10.4,17.3,N/A,,Partly Cloudy,230,2013-05-15 00:35:00
6:15 PM,71.6,26.6,19,30.21,10.0,SSW,8.1,-,N/A,,Mostly Cloudy,210,2013-05-15 01:15:00
6:35 PM,71.6,26.6,19,30.21,10.0,SSW,6.9,-,N/A,,Scattered Clouds,210,2013-05-15 01:35:00
6:55 PM,71.6,24.8,17,30.21,10.0,SW,9.2,-,N/A,,Partly Cloudy,220,2013-05-15 01:55:00
7:15 PM,69.8,24.8,18,30.21,10.0,SSW,5.8,-,N/A,,Clear,200,2013-05-15 02:15:00
7:35 PM,68.0,26.6,21,30.21,10.0,SW,4.6,-,N/A,,Partly Cloudy,220,2013-05-15 02:35:00
7:55 PM,64.4,26.6,24,30.22,10.0,South,6.9,-,N/A,,Partly Cloudy,190,2013-05-15 02:55:00
8:15 PM,64.4,24.8,22,30.22,10.0,SW,8.1,-,N/A,,Unknown,220,2013-05-15 03:15:00
8:35 PM,64.4,26.6,24,30.23,10.0,SW,6.9,-,N/A,,Unknown,220,2013-05-15 03:35:00
8:55 PM,64.4,24.8,22,30.23,10.0,SW,9.2,-,N/A,,Clear,220,2013-05-15 03:55:00
9:15 PM,64.4,24.8,22,30.24,10.0,SW,9.2,-,N/A,,Clear,220,2013-05-15 04:15:00
9:35 PM,64.4,24.8,22,30.25,10.0,SW,8.1,-,N/A,,Clear,220,2013-05-15 04:35:00
9:55 PM,64.4,24.8,22,30.25,10.0,SW,9.2,-,N/A,,Clear,220,2013-05-15 04:55:00
10:15 PM,64.4,24.8,22,30.25,10.0,SW,10.4,-,N/A,,Clear,220,2013-05-15 05:15:00
10:35 PM,64.4,24.8,22,30.26,10.0,SW,10.4,-,N/A,,Clear,220,2013-05-15 05:35:00
10:55 PM,62.6,24.8,24,30.25,10.0,SW,10.4,-,N/A,,Clear,220,2013-05-15 05:55:00
11:15 PM,62.6,24.8,24,30.25,10.0,SW,10.4,-,N/A,,Clear,220,2013-05-15 06:15:00
11:35 PM,62.6,24.8,24,30.25,10.0,SW,8.1,-,N/A,,Clear,220,2013-05-15 06:35:00
11:55 PM,62.6,24.8,24,30.26,10.0,SW,9.2,-,N/A,,Clear,220,2013-05-15 06:55:00